Date String (YYYY-MM-DD hh:mm:ss) UTC,Instrument flags,Ambient pressure (hPa),Sample flow (lpm),Bypass flow (lpm),Sample temperature (°C),Ambient temperature (°C),ASC tube jacket temperature (°C),LED temperature (°C),Box temperature (°C),Sample RH (%),Span deviation,Mass concentration (μg/m³),Mass concentration (μg/m³),Mass concentration (μg/m³)
DateTimeUTC,F1_M11,P_M11,Q1_M11,Q2_M11,T1_M11,T2_M11,T3_M11,T4_M11,T5_M11,U1_M11,ZSPAN_M11,X0_M11,X2_M11,X1_M11
2022-11-01 03:00:00,,0823.4,5.00,0.00,30.2,28.6,00.0,39.1,32.0,08.9,0000.0,0003.26,0002.00,0001.74
2022-11-01 03:01:00,,0823.4,4.99,0.00,30.2,28.6,00.0,39.1,31.9,08.9,0000.0,0002.71,0002.03,0001.75
2022-11-01 03:02:00,,0823.4,5.01,0.00,30.2,28.6,00.0,39.1,31.9,08.9,0000.0,0003.48,0002.05,0001.76
2022-11-01 03:03:00,,0823.4,4.99,0.00,30.2,28.6,00.0,39.1,31.9,08.9,0000.0,0004.11,0002.05,0001.76
2022-11-01 03:04:00,,0823.4,5.00,0.00,30.2,28.6,00.0,39.1,31.9,08.9,0000.0,0003.98,0002.00,0001.75
2022-11-01 03:05:00,,0823.4,5.00,0.00,30.2,28.6,00.0,39.1,31.9,08.9,0000.0,0004.05,0002.00,0001.75
2022-11-01 03:06:00,,0823.3,4.99,0.00,30.2,28.6,00.0,39.1,31.9,08.9,0000.0,0004.07,0001.99,0001.74
2022-11-01 03:07:00,,0823.4,5.02,0.00,30.2,28.5,00.0,39.1,32.0,08.9,0000.0,0004.08,0002.00,0001.74
2022-11-01 03:08:00,,0823.4,4.98,0.00,30.2,28.6,00.0,39.1,32.0,08.9,0000.0,0004.07,0002.00,0001.73
2022-11-01 03:09:00,,0823.4,5.02,0.00,30.2,28.6,00.0,39.1,31.9,08.9,0000.0,0004.06,0002.00,0001.74
2022-11-01 03:10:00,,0823.4,5.00,0.00,30.2,28.5,00.0,39.1,31.8,08.9,0000.0,0004.05,0002.00,0001.74
2022-11-01 03:11:00,,0823.4,4.99,0.00,30.2,28.5,00.0,39.1,31.9,08.9,0000.0,0004.76,0001.96,0001.73
2022-11-01 03:12:00,,0823.4,4.99,0.00,30.2,28.5,00.0,39.1,31.9,08.9,0000.0,0005.17,0001.93,0001.73
2022-11-01 03:13:00,,0823.4,5.01,0.00,30.2,28.5,00.0,39.1,31.9,08.9,0000.0,0004.47,0001.89,0001.73
2022-11-01 03:14:00,,0823.4,4.99,0.00,30.2,28.5,00.0,39.1,31.9,08.9,0000.0,0004.08,0001.93,0001.73
2022-11-01 03:15:00,,0823.4,5.00,0.00,30.2,28.5,00.0,39.1,31.9,08.9,0000.0,0005.42,0001.92,0001.74
2022-11-01 03:16:00,,0823.4,5.01,0.00,30.2,28.6,00.0,39.1,32.0,08.9,0000.0,0005.30,0001.90,0001.73
2022-11-01 03:17:00,,0823.4,4.98,0.00,30.2,28.6,00.0,39.1,31.9,08.9,0000.0,0005.30,0001.90,0001.72
2022-11-01 03:18:00,,0823.5,5.01,0.00,30.2,28.5,00.0,39.1,31.8,08.9,0000.0,0005.35,0001.91,0001.72
2022-11-01 03:19:00,,0823.5,4.99,0.00,30.2,28.5,00.0,39.1,31.8,08.9,0000.0,0005.33,0001.89,0001.70
2022-11-01 03:20:00,,0823.6,5.01,0.00,30.2,28.5,00.0,39.1,31.9,08.9,0000.0,0005.32,0001.88,0001.68
2022-11-01 03:21:00,,0823.6,4.99,0.00,30.2,28.5,00.0,39.1,31.9,08.9,0000.0,0005.38,0001.90,0001.68
2022-11-01 03:22:00,,0823.6,5.01,0.00,30.2,28.5,00.0,39.0,31.9,08.9,0000.0,0004.83,0001.91,0001.66
2022-11-01 03:23:00,,0823.6,5.01,0.00,30.2,28.5,00.0,39.0,31.9,08.8,0000.0,0004.17,0001.93,0001.66
2022-11-01 03:24:00,,0823.6,4.98,0.00,30.2,28.5,00.0,39.0,31.9,08.8,0000.0,0004.21,0001.95,0001.65
2022-11-01 03:25:00,,0823.6,5.01,0.00,30.2,28.5,00.0,39.0,31.9,08.8,0000.0,0004.10,0001.94,0001.64
2022-11-01 03:26:00,,0823.6,4.98,0.00,30.2,28.5,00.0,39.0,31.9,08.8,0000.0,0002.54,0001.93,0001.63
2022-11-01 03:27:00,,0823.6,5.02,0.00,30.2,28.5,00.0,39.0,31.9,08.8,0000.0,0002.65,0001.94,0001.62
2022-11-01 03:28:00,,0823.6,4.98,0.00,30.1,28.5,00.0,39.0,31.9,08.8,0000.0,0002.69,0001.96,0001.63
2022-11-01 03:29:00,,0823.7,5.02,0.00,30.2,28.5,00.0,39.0,31.9,08.8,0000.0,0002.61,0001.93,0001.62
2022-11-01 03:30:00,,0823.7,4.99,0.00,30.2,28.5,00.0,39.0,31.9,08.8,0000.0,0002.59,0001.92,0001.62
2022-11-01 03:31:00,,0823.7,5.00,0.00,30.2,28.5,00.0,39.0,31.9,08.8,0000.0,0002.59,0001.91,0001.62
2022-11-01 03:32:00,,0823.7,5.02,0.00,30.1,28.5,00.0,39.0,31.7,08.8,0000.0,0002.53,0001.89,0001.62
2022-11-01 03:33:00,,0823.7,5.00,0.00,30.1,28.5,00.0,39.0,31.8,08.8,0000.0,0002.48,0001.89,0001.62
2022-11-01 03:34:00,,0823.7,5.00,0.00,30.1,28.5,00.0,39.0,31.9,08.8,0000.0,0002.44,0001.89,0001.63
2022-11-01 03:35:00,,0823.7,4.99,0.00,30.1,28.5,00.0,39.0,31.9,08.8,0000.0,0002.41,0001.88,0001.63
2022-11-01 03:36:00,,0823.7,5.02,0.00,30.1,28.5,00.0,39.0,31.9,08.8,0000.0,0002.32,0001.84,0001.63
2022-11-01 03:37:00,,0823.7,4.99,0.00,30.1,28.5,00.0,39.0,31.8,08.8,0000.0,0002.38,0001.87,0001.64
2022-11-01 03:38:00,,0823.7,4.99,0.00,30.1,28.5,00.0,39.0,31.8,08.8,0000.0,0002.50,0001.93,0001.65
2022-11-01 03:39:00,,0823.7,5.02,0.00,30.1,28.5,00.0,39.0,31.8,08.8,0000.0,0002.42,0001.91,0001.65
2022-11-01 03:40:00,,0823.7,4.99,0.00,30.1,28.4,00.0,39.0,31.8,08.7,0000.0,0002.39,0001.89,0001.65
2022-11-01 03:41:00,,0823.7,4.99,0.00,30.1,28.4,00.0,39.0,31.8,08.7,0000.0,0002.45,0001.91,0001.65
2022-11-01 03:42:00,,0823.7,5.02,0.00,30.1,28.4,00.0,39.0,31.8,08.7,0000.0,0002.48,0001.92,0001.65
2022-11-01 03:43:00,,0823.7,4.99,0.00,30.1,28.4,00.0,39.0,31.8,08.7,0000.0,0002.47,0001.91,0001.64
2022-11-01 03:44:00,,0823.7,4.99,0.00,30.1,28.4,00.0,39.0,31.8,08.7,0000.0,0002.47,0001.89,0001.64
2022-11-01 03:45:00,,0823.7,5.00,0.00,30.1,28.4,00.0,39.0,31.7,08.7,0000.0,0002.45,0001.87,0001.63
2022-11-01 03:46:00,,0823.7,5.01,0.00,30.1,28.4,00.0,39.0,31.7,08.8,0000.0,0002.43,0001.86,0001.62
2022-11-01 03:47:00,,0823.7,4.99,0.00,30.1,28.4,00.0,39.0,31.8,08.8,0000.0,0002.50,0001.89,0001.62
2022-11-01 03:48:00,,0823.7,5.01,0.00,30.1,28.4,00.0,39.0,31.8,08.7,0000.0,0002.47,0001.89,0001.62
2022-11-01 03:49:00,,0823.7,4.99,0.00,30.1,28.4,00.0,39.0,31.9,08.7,0000.0,0002.23,0001.81,0001.62
2022-11-01 03:50:00,,0823.7,5.01,0.00,30.1,28.4,00.0,39.0,31.8,08.7,0000.0,0002.27,0001.84,0001.61
2022-11-01 03:51:00,,0823.7,4.98,0.00,30.1,28.4,00.0,38.9,31.7,08.7,0000.0,0002.29,0001.85,0001.62
2022-11-01 03:52:00,,0823.7,5.01,0.00,30.1,28.4,00.0,38.9,31.8,08.7,0000.0,0002.32,0001.86,0001.63
2022-11-01 03:53:00,,0823.7,4.98,0.00,30.1,28.4,00.0,38.9,31.8,08.7,0000.0,0002.31,0001.86,0001.63
2022-11-01 03:54:00,,0823.7,5.02,0.00,30.1,28.4,00.0,38.9,31.8,08.8,0000.0,0002.42,0001.87,0001.65
2022-11-01 03:55:00,,0823.7,4.98,0.00,30.0,28.4,00.0,38.9,31.8,08.7,0000.0,0002.75,0001.89,0001.67
2022-11-01 03:56:00,,0823.7,5.01,0.00,30.0,28.4,00.0,38.9,31.8,08.5,0000.0,0002.82,0001.93,0001.69
2022-11-01 03:57:00,,0823.7,5.00,0.00,30.0,28.4,00.0,38.9,31.8,08.3,0000.0,0004.38,0002.03,0001.71
2022-11-01 03:58:00,,0823.7,5.00,0.00,30.0,28.4,00.0,38.9,31.8,08.5,0000.0,0004.81,0002.09,0001.72
2022-11-01 03:59:00,,0823.7,5.00,0.00,30.0,28.4,00.0,38.9,31.8,08.2,0000.0,0004.96,0002.13,0001.74
